,,PA_Meas_PMT16A,,PR_Meas_QMR101_102,,RH_Meas_QMH101,,SR_Meas_QMS101,,TA_Meas_QMH101,,GenWind,,GenWind,
time,status,PA,status,PR,status,RH,status,SR,status,TA,status,DirAvg,status,SpdAvg,
2010-11-28, 00:00:04,VALID,915.943,VALID,0,VALID,96.5887,VALID,0,VALID,20.1123,VALID,131,VALID,0,
2010-11-28, 00:01:04,VALID,915.932,VALID,0,VALID,96.6192,VALID,0,VALID,20.1318,VALID,130,VALID,0,
2010-11-28, 00:02:04,VALID,915.904,VALID,0,VALID,96.6649,VALID,0,VALID,20.1123,VALID,130,VALID,0,
2010-11-28, 00:03:04,VALID,915.912,VALID,0,VALID,96.7183,VALID,0,VALID,20.1513,VALID,131,VALID,0,
2010-11-28, 00:04:04,VALID,915.914,VALID,0,VALID,96.7259,VALID,0,VALID,20.1708,VALID,131,VALID,0,
2010-11-28, 00:05:04,VALID,915.905,VALID,0,VALID,96.7793,VALID,0,VALID,20.1693,VALID,131,VALID,0,
2010-11-28, 00:06:04,VALID,915.887,VALID,0,VALID,96.764,VALID,0,VALID,20.1693,VALID,130,VALID,0,
2010-11-28, 00:07:04,VALID,915.89,VALID,0,VALID,96.7411,VALID,0,VALID,20.1903,VALID,131,VALID,0,
2010-11-28, 00:08:04,VALID,915.901,VALID,0,VALID,96.7564,VALID,0,VALID,20.1693,VALID,131,VALID,0,
2010-11-28, 00:09:04,VALID,915.879,VALID,0,VALID,96.7411,VALID,0,VALID,20.1708,VALID,131,VALID,0,
2010-11-28, 00:10:04,VALID,915.857,VALID,0,VALID,96.764,VALID,0,VALID,20.1708,VALID,131,VALID,0,
2010-11-28, 00:11:04,VALID,915.843,VALID,0,VALID,96.7564,VALID,0,VALID,20.1513,VALID,130,VALID,0,
2010-11-28, 00:12:04,VALID,915.866,VALID,0,VALID,96.7564,VALID,0,VALID,20.1303,VALID,130,VALID,0,
2010-11-28, 00:13:04,VALID,915.876,VALID,0,VALID,96.7945,VALID,0,VALID,20.1513,VALID,131,VALID,0,
2010-11-28, 00:14:04,VALID,915.864,VALID,0,VALID,96.7793,VALID,0,VALID,20.1513,VALID,131,VALID,0,
2010-11-28, 00:15:04,VALID,915.871,VALID,0,VALID,96.7488,VALID,0,VALID,20.1123,VALID,131,VALID,0,
2010-11-28, 00:16:04,VALID,915.853,VALID,0,VALID,96.7411,VALID,0,VALID,20.0928,VALID,130,VALID,0,
2010-11-28, 00:17:04,VALID,915.849,VALID,0,VALID,96.7259,VALID,0,VALID,20.0733,VALID,130,VALID,0,
2010-11-28, 00:18:04,VALID,915.84,VALID,0,VALID,96.7411,VALID,0,VALID,20.0343,VALID,130,VALID,0,
2010-11-28, 00:19:04,VALID,915.804,VALID,0,VALID,96.7411,VALID,0,VALID,20.0148,VALID,131,VALID,0,
2010-11-28, 00:20:04,VALID,915.802,VALID,0,VALID,96.7716,VALID,0,VALID,20.0163,VALID,130,VALID,0,
2010-11-28, 00:21:04,VALID,915.795,VALID,0,VALID,96.7716,VALID,0,VALID,19.9953,VALID,130,VALID,0,
2010-11-28, 00:22:04,VALID,915.768,VALID,0,VALID,96.7793,VALID,0,VALID,19.9548,VALID,131,VALID,0,
2010-11-28, 00:23:04,VALID,915.795,VALID,0,VALID,96.7945,VALID,0,VALID,19.9758,VALID,131,VALID,0,
2010-11-28, 00:24:04,VALID,915.763,VALID,0,VALID,96.8021,VALID,0,VALID,19.9758,VALID,131,VALID,0,
2010-11-28, 00:25:04,VALID,915.79,VALID,0,VALID,96.7869,VALID,0,VALID,19.9368,VALID,131,VALID,0,
2010-11-28, 00:26:04,VALID,915.797,VALID,0,VALID,96.7869,VALID,0,VALID,19.9173,VALID,130,VALID,0,
2010-11-28, 00:27:04,VALID,915.802,VALID,0,VALID,96.8021,VALID,0,VALID,19.9173,VALID,130,VALID,0,
2010-11-28, 00:28:04,VALID,915.808,VALID,0,VALID,96.8098,VALID,0,VALID,19.8978,VALID,130,VALID,0,
2010-11-28, 00:29:04,VALID,915.834,VALID,0,VALID,96.8174,VALID,0,VALID,19.8978,VALID,131,VALID,0,
2010-11-28, 00:30:04,VALID,915.795,VALID,0,VALID,96.8707,VALID,0,VALID,19.8978,VALID,131,VALID,0,
2010-11-28, 00:31:04,VALID,915.781,VALID,0,VALID,96.8707,VALID,0,VALID,19.8978,VALID,131,VALID,0,
2010-11-28, 00:32:04,VALID,915.784,VALID,0,VALID,96.8784,VALID,0,VALID,19.8978,VALID,131,VALID,0,
2010-11-28, 00:33:04,VALID,915.78,VALID,0,VALID,96.886,VALID,0,VALID,19.9368,VALID,131,VALID,0,
2010-11-28, 00:34:04,VALID,915.781,VALID,0,VALID,96.9241,VALID,0,VALID,19.9368,VALID,131,VALID,0,
2010-11-28, 00:35:04,VALID,915.79,VALID,0,VALID,96.9012,VALID,0,VALID,19.9368,VALID,130,VALID,0,
2010-11-28, 00:36:04,VALID,915.802,VALID,0,VALID,96.8479,VALID,0,VALID,19.9173,VALID,131,VALID,0,
2010-11-28, 00:37:04,VALID,915.806,VALID,0,VALID,96.8784,VALID,0,VALID,19.9173,VALID,131,VALID,0,
2010-11-28, 00:38:04,VALID,915.813,VALID,0,VALID,96.7411,VALID,0,VALID,19.8588,VALID,130,VALID,0,
2010-11-28, 00:39:04,VALID,915.803,VALID,0,VALID,96.7107,VALID,0,VALID,19.8198,VALID,130,VALID,0,
2010-11-28, 00:40:04,VALID,915.798,VALID,0,VALID,96.7869,VALID,0,VALID,19.8003,VALID,131,VALID,0.741797,
2010-11-28, 00:41:04,VALID,915.799,VALID,0,VALID,96.7945,VALID,0,VALID,19.8018,VALID,130,VALID,1.00078,
2010-11-28, 00:42:04,VALID,915.798,VALID,0,VALID,96.8631,VALID,0,VALID,19.7988,VALID,131,VALID,0.900391,
2010-11-28, 00:43:04,VALID,915.798,VALID,0,VALID,96.8784,VALID,0,VALID,19.7793,VALID,131,VALID,0.666797,
2010-11-28, 00:44:04,VALID,915.797,VALID,0,VALID,96.8326,VALID,0,VALID,19.7613,VALID,131,VALID,0.728516,
2010-11-28, 00:45:04,VALID,915.769,VALID,0,VALID,96.8707,VALID,0,VALID,19.7403,VALID,131,VALID,0.834766,
2010-11-28, 00:46:04,VALID,915.758,VALID,0,VALID,96.9394,VALID,0,VALID,19.7613,VALID,131,VALID,0.684766,
2010-11-28, 00:47:04,VALID,915.732,VALID,0,VALID,96.9089,VALID,0,VALID,19.7418,VALID,130,VALID,0.192578,
2010-11-28, 00:48:04,VALID,915.732,VALID,0,VALID,96.9317,VALID,0,VALID,19.7613,VALID,131,VALID,0.524609,
2010-11-28, 00:49:04,VALID,915.737,VALID,0,VALID,96.947,VALID,0,VALID,19.7613,VALID,131,VALID,0,
2010-11-28, 00:50:04,VALID,915.703,VALID,0,VALID,96.9622,VALID,0,VALID,19.7418,VALID,131,VALID,0.149609,
2010-11-28, 00:51:04,VALID,915.705,VALID,0,VALID,96.9775,VALID,0,VALID,19.7808,VALID,131,VALID,0,
2010-11-28, 00:52:04,VALID,915.683,VALID,0,VALID,96.9775,VALID,0,VALID,19.7598,VALID,131,VALID,0,
2010-11-28, 00:53:04,VALID,915.668,VALID,0,VALID,97.008,VALID,0,VALID,19.8003,VALID,131,VALID,0.00429688,
2010-11-28, 00:54:04,VALID,915.64,VALID,0,VALID,97.008,VALID,0,VALID,19.8198,VALID,130,VALID,0,
2010-11-28, 00:55:04,VALID,915.639,VALID,0,VALID,97.0232,VALID,0,VALID,19.8198,VALID,131,VALID,0,
2010-11-28, 00:56:04,VALID,915.594,VALID,0,VALID,97.0232,VALID,0,VALID,19.8393,VALID,130,VALID,0,
2010-11-28, 00:57:04,VALID,915.6,VALID,0,VALID,97.0385,VALID,0,VALID,19.8393,VALID,131,VALID,0.291016,
2010-11-28, 00:58:04,VALID,915.609,VALID,0,VALID,97.0461,VALID,0,VALID,19.8783,VALID,131,VALID,0.367969,
2010-11-28, 00:59:04,VALID,915.573,VALID,0,VALID,97.0537,VALID,0,VALID,19.8783,VALID,131,VALID,0,
2010-11-28, 01:00:04,VALID,915.557,VALID,0,VALID,97.0232,VALID,0,VALID,19.8783,VALID,131,VALID,0,
2010-11-28, 01:01:04,VALID,915.577,VALID,0,VALID,97.0537,VALID,0,VALID,19.8978,VALID,130,VALID,0,
2010-11-28, 01:02:04,VALID,915.545,VALID,0,VALID,97.069,VALID,0,VALID,19.8978,VALID,131,VALID,0,
2010-11-28, 01:03:04,VALID,915.536,VALID,0,VALID,97.0308,VALID,0,VALID,19.9173,VALID,130,VALID,0,
2010-11-28, 01:04:04,VALID,915.527,VALID,0,VALID,97.0156,VALID,0,VALID,19.8963,VALID,131,VALID,0,
2010-11-28, 01:05:04,VALID,915.49,VALID,0,VALID,97.008,VALID,0,VALID,19.9173,VALID,130,VALID,0,
2010-11-28, 01:06:04,VALID,915.51,VALID,0,VALID,97.0308,VALID,0,VALID,19.9173,VALID,131,VALID,0,
2010-11-28, 01:07:04,VALID,915.502,VALID,0,VALID,96.9851,VALID,0,VALID,19.8768,VALID,131,VALID,0,
2010-11-28, 01:08:04,VALID,915.503,VALID,0,VALID,96.9927,VALID,0,VALID,19.8978,VALID,131,VALID,0,
2010-11-28, 01:09:04,VALID,915.487,VALID,0,VALID,96.9927,VALID,0,VALID,19.8783,VALID,130,VALID,0,
2010-11-28, 01:10:04,VALID,915.453,VALID,0,VALID,96.9927,VALID,0,VALID,19.8993,VALID,131,VALID,0,
2010-11-28, 01:11:04,VALID,915.457,VALID,0,VALID,97.0003,VALID,0,VALID,19.8588,VALID,131,VALID,0,
2010-11-28, 01:12:04,VALID,915.406,VALID,0,VALID,97.0308,VALID,0,VALID,19.8783,VALID,130,VALID,0,
2010-11-28, 01:13:04,VALID,915.419,VALID,0,VALID,97.0385,VALID,0,VALID,19.8783,VALID,131,VALID,0,
2010-11-28, 01:14:04,VALID,915.398,VALID,0,VALID,97.0461,VALID,0,VALID,19.8978,VALID,131,VALID,0,
2010-11-28, 01:15:04,VALID,915.358,VALID,0,VALID,97.0613,VALID,0,VALID,19.9173,VALID,131,VALID,0,
2010-11-28, 01:16:04,VALID,915.367,VALID,0,VALID,97.0537,VALID,0,VALID,19.9173,VALID,131,VALID,0,
2010-11-28, 01:17:04,VALID,915.362,VALID,0,VALID,97.0385,VALID,0,VALID,19.9173,VALID,130,VALID,0,
2010-11-28, 01:18:04,VALID,915.345,VALID,0,VALID,96.9775,VALID,0,VALID,19.8978,VALID,131,VALID,0,
2010-11-28, 01:19:04,VALID,915.328,VALID,0,VALID,96.8403,VALID,0,VALID,19.8003,VALID,130,VALID,0,
2010-11-28, 01:20:04,VALID,915.3,VALID,0,VALID,96.7564,VALID,0,VALID,19.7028,VALID,130,VALID,0,
2010-11-28, 01:21:04,VALID,915.31,VALID,0,VALID,96.7259,VALID,0,VALID,19.6038,VALID,130,VALID,0,
2010-11-28, 01:22:04,VALID,915.299,VALID,0,VALID,96.7869,VALID,0,VALID,19.5858,VALID,130,VALID,0,
2010-11-28, 01:23:04,VALID,915.271,VALID,0,VALID,96.7869,VALID,0,VALID,19.5678,VALID,130,VALID,0,
2010-11-28, 01:24:04,VALID,915.264,VALID,0,VALID,96.8326,VALID,0,VALID,19.5078,VALID,131,VALID,0,
2010-11-28, 01:25:04,VALID,915.297,VALID,0,VALID,96.8479,VALID,0,VALID,19.4883,VALID,131,VALID,0,
2010-11-28, 01:26:04,VALID,915.288,VALID,0,VALID,96.8403,VALID,0,VALID,19.4493,VALID,131,VALID,0,
2010-11-28, 01:27:04,VALID,915.3,VALID,0,VALID,96.8631,VALID,0,VALID,19.4493,VALID,130,VALID,0,
2010-11-28, 01:28:04,VALID,915.241,VALID,0,VALID,96.8555,VALID,0,VALID,19.4298,VALID,131,VALID,0,
2010-11-28, 01:29:04,VALID,915.205,VALID,0,VALID,96.9775,VALID,0,VALID,19.4703,VALID,131,VALID,0,
2010-11-28, 01:30:04,VALID,915.197,VALID,0,VALID,96.9851,VALID,0,VALID,19.4898,VALID,130,VALID,0,
2010-11-28, 01:31:04,VALID,915.194,VALID,0,VALID,97.0308,VALID,0,VALID,19.4883,VALID,131,VALID,0,
2010-11-28, 01:32:04,VALID,915.13,VALID,0,VALID,97.0994,VALID,0,VALID,19.5663,VALID,130,VALID,0,
2010-11-28, 01:33:04,VALID,915.115,VALID,0,VALID,97.0918,VALID,0,VALID,19.5858,VALID,131,VALID,0,
2010-11-28, 01:34:04,VALID,915.109,VALID,0,VALID,97.1071,VALID,0,VALID,19.6053,VALID,131,VALID,0,
2010-11-28, 01:35:04,VALID,915.085,VALID,0,VALID,97.1071,VALID,0,VALID,19.6653,VALID,130,VALID,0,
2010-11-28, 01:36:04,VALID,915.063,VALID,0,VALID,97.0994,VALID,0,VALID,19.6443,VALID,130,VALID,0,
2010-11-28, 01:37:04,VALID,915.049,VALID,0,VALID,97.0613,VALID,0,VALID,19.6443,VALID,130,VALID,0,
2010-11-28, 01:38:04,VALID,915.059,VALID,0,VALID,97.0537,VALID,0,VALID,19.6248,VALID,131,VALID,0,
2010-11-28, 01:39:04,VALID,914.996,VALID,0,VALID,97.069,VALID,0,VALID,19.6248,VALID,130,VALID,0,
2010-11-28, 01:40:04,VALID,915.03,VALID,0,VALID,97.0842,VALID,0,VALID,19.6443,VALID,131,VALID,0,
2010-11-28, 01:41:04,VALID,915.006,VALID,0,VALID,97.0918,VALID,0,VALID,19.6443,VALID,131,VALID,0,
2010-11-28, 01:42:04,VALID,914.998,VALID,0,VALID,97.0613,VALID,0,VALID,19.6638,VALID,131,VALID,0,
2010-11-28, 01:43:04,VALID,914.986,VALID,0,VALID,97.0537,VALID,0,VALID,19.6443,VALID,130,VALID,0,
2010-11-28, 01:44:04,VALID,914.978,VALID,0,VALID,97.0766,VALID,0,VALID,19.6443,VALID,131,VALID,0,
2010-11-28, 01:45:04,VALID,914.976,VALID,0,VALID,97.069,VALID,0,VALID,19.6443,VALID,131,VALID,0,
2010-11-28, 01:46:04,VALID,914.978,VALID,0,VALID,97.0842,VALID,0,VALID,19.6428,VALID,130,VALID,0,
2010-11-28, 01:47:04,VALID,914.939,VALID,0,VALID,97.0994,VALID,0,VALID,19.6833,VALID,131,VALID,0,
2010-11-28, 01:48:04,VALID,914.93,VALID,0,VALID,97.0461,VALID,0,VALID,19.6638,VALID,131,VALID,0,
2010-11-28, 01:49:04,VALID,914.938,VALID,0,VALID,97.0537,VALID,0,VALID,19.6443,VALID,131,VALID,0,
2010-11-28, 01:50:04,VALID,914.917,VALID,0,VALID,97.0918,VALID,0,VALID,19.6443,VALID,131,VALID,0,
2010-11-28, 01:51:04,VALID,914.922,VALID,0,VALID,97.069,VALID,0,VALID,19.6638,VALID,131,VALID,0,
2010-11-28, 01:52:04,VALID,914.851,VALID,0,VALID,97.0918,VALID,0,VALID,19.6638,VALID,130,VALID,0.00078125,
2010-11-28, 01:53:04,VALID,914.833,VALID,0,VALID,97.1071,VALID,0,VALID,19.6638,VALID,131,VALID,0.461328,
2010-11-28, 01:54:04,VALID,914.821,VALID,0,VALID,97.0918,VALID,0,VALID,19.6638,VALID,131,VALID,0.519922,
2010-11-28, 01:55:04,VALID,914.815,VALID,0,VALID,97.0918,VALID,0,VALID,19.7043,VALID,131,VALID,0.296094,
2010-11-28, 01:56:04,VALID,914.793,VALID,0,VALID,97.1147,VALID,0,VALID,19.6638,VALID,130,VALID,0,
2010-11-28, 01:57:04,VALID,914.765,VALID,0,VALID,97.0994,VALID,0,VALID,19.6443,VALID,131,VALID,0,
2010-11-28, 01:58:04,VALID,914.74,VALID,0,VALID,97.069,VALID,0,VALID,19.6248,VALID,130,VALID,0.373047,
2010-11-28, 01:59:04,VALID,914.719,VALID,0,VALID,97.0842,VALID,0,VALID,19.6248,VALID,130,VALID,0.111328,
2010-11-28, 02:00:04,VALID,914.698,VALID,0,VALID,97.0994,VALID,0,VALID,19.6053,VALID,130,VALID,0,
2010-11-28, 02:01:04,VALID,914.732,VALID,0,VALID,97.1223,VALID,0,VALID,19.6248,VALID,131,VALID,0,
2010-11-28, 02:02:04,VALID,914.707,VALID,0,VALID,97.1299,VALID,0,VALID,19.6443,VALID,131,VALID,0.285937,
2010-11-28, 02:03:04,VALID,914.698,VALID,0,VALID,97.1681,VALID,0,VALID,19.6638,VALID,131,VALID,0.0429688,
2010-11-28, 02:04:04,VALID,914.706,VALID,0,VALID,97.1528,VALID,0,VALID,19.6833,VALID,130,VALID,0,
2010-11-28, 02:05:04,VALID,914.704,VALID,0,VALID,97.1833,VALID,0,VALID,19.7043,VALID,130,VALID,0.0964844,
2010-11-28, 02:06:04,VALID,914.692,VALID,0,VALID,97.1909,VALID,0,VALID,19.7028,VALID,130,VALID,0.307422,
2010-11-28, 02:07:04,VALID,914.67,VALID,0,VALID,97.1757,VALID,0,VALID,19.7223,VALID,131,VALID,0,
2010-11-28, 02:08:04,VALID,914.655,VALID,0,VALID,97.1757,VALID,0,VALID,19.7613,VALID,131,VALID,0,
2010-11-28, 02:09:04,VALID,914.63,VALID,0,VALID,97.1604,VALID,0,VALID,19.7613,VALID,131,VALID,0.535547,
2010-11-28, 02:10:04,VALID,914.618,VALID,0,VALID,97.1757,VALID,0,VALID,19.7418,VALID,131,VALID,0.620703,
2010-11-28, 02:11:04,VALID,914.618,VALID,0,VALID,97.1681,VALID,0,VALID,19.7808,VALID,131,VALID,0,
2010-11-28, 02:12:04,VALID,914.583,VALID,0,VALID,97.1909,VALID,0,VALID,19.7613,VALID,131,VALID,0,
2010-11-28, 02:13:04,VALID,914.568,VALID,0,VALID,97.1757,VALID,0,VALID,19.7613,VALID,131,VALID,0.458594,
2010-11-28, 02:14:04,VALID,914.561,VALID,0,VALID,97.1833,VALID,0,VALID,19.7613,VALID,131,VALID,0.716797,
2010-11-28, 02:15:04,VALID,914.569,VALID,0,VALID,97.1986,VALID,0,VALID,19.7808,VALID,131,VALID,0.683984,
2010-11-28, 02:16:04,VALID,914.548,VALID,0,VALID,97.2062,VALID,0,VALID,19.7613,VALID,131,VALID,0.709375,
2010-11-28, 02:17:04,VALID,914.556,VALID,0,VALID,97.2062,VALID,0,VALID,19.7808,VALID,131,VALID,0.625,
2010-11-28, 02:18:04,VALID,914.556,VALID,0,VALID,97.1986,VALID,0,VALID,19.7613,VALID,131,VALID,0.44375,
2010-11-28, 02:19:04,VALID,914.552,VALID,0,VALID,97.2214,VALID,0,VALID,19.8003,VALID,131,VALID,0.00078125,
2010-11-28, 02:20:04,VALID,914.56,VALID,0,VALID,97.229,VALID,0,VALID,19.7808,VALID,131,VALID,0.201172,
2010-11-28, 02:21:04,VALID,914.575,VALID,0,VALID,97.2367,VALID,0,VALID,19.8198,VALID,130,VALID,0.4375,
2010-11-28, 02:22:04,VALID,914.562,VALID,0,VALID,97.2214,VALID,0,VALID,19.7988,VALID,131,VALID,0.894922,
2010-11-28, 02:23:04,VALID,914.56,VALID,0,VALID,97.2138,VALID,0,VALID,19.8198,VALID,130,VALID,0.901172,
2010-11-28, 02:24:04,VALID,914.535,VALID,0,VALID,97.229,VALID,0,VALID,19.8198,VALID,130,VALID,0.789063,
2010-11-28, 02:25:04,VALID,914.537,VALID,0,VALID,97.229,VALID,0,VALID,19.8198,VALID,131,VALID,0.846094,
2010-11-28, 02:26:04,VALID,914.544,VALID,0,VALID,97.2214,VALID,0,VALID,19.8393,VALID,131,VALID,1.24102,
2010-11-28, 02:27:04,VALID,914.525,VALID,0,VALID,97.2367,VALID,0,VALID,19.8198,VALID,130,VALID,0.674609,
2010-11-28, 02:28:04,VALID,914.523,VALID,0,VALID,97.2062,VALID,0,VALID,19.8198,VALID,131,VALID,0.909375,
2010-11-28, 02:29:04,VALID,914.506,VALID,0,VALID,97.2214,VALID,0,VALID,19.8198,VALID,131,VALID,1.13398,
2010-11-28, 02:30:04,VALID,914.498,VALID,0,VALID,97.2519,VALID,0,VALID,19.8198,VALID,131,VALID,1.10664,
2010-11-28, 02:31:04,VALID,914.496,VALID,0,VALID,97.2443,VALID,0,VALID,19.8393,VALID,131,VALID,0,
2010-11-28, 02:32:04,VALID,914.477,VALID,0,VALID,97.2519,VALID,0,VALID,19.8393,VALID,131,VALID,0.0191406,
2010-11-28, 02:33:04,VALID,914.454,VALID,0,VALID,97.2443,VALID,0,VALID,19.8198,VALID,131,VALID,0.786328,
2010-11-28, 02:34:04,VALID,914.441,VALID,0,VALID,97.229,VALID,0,VALID,19.8198,VALID,131,VALID,0.331641,
2010-11-28, 02:35:04,VALID,914.435,VALID,0,VALID,97.2672,VALID,0,VALID,19.8198,VALID,130,VALID,0.00195313,
2010-11-28, 02:36:04,VALID,914.447,VALID,0,VALID,97.2595,VALID,0,VALID,19.8198,VALID,131,VALID,0,
2010-11-28, 02:37:04,VALID,914.426,VALID,0,VALID,97.2595,VALID,0,VALID,19.8393,VALID,131,VALID,0.0761719,
2010-11-28, 02:38:04,VALID,914.43,VALID,0,VALID,97.2443,VALID,0,VALID,19.8393,VALID,131,VALID,0,
2010-11-28, 02:39:04,VALID,914.377,VALID,0,VALID,97.2519,VALID,0,VALID,19.8003,VALID,130,VALID,0.484375,
2010-11-28, 02:40:04,VALID,914.385,VALID,0,VALID,97.2367,VALID,0,VALID,19.8003,VALID,131,VALID,0.775781,
2010-11-28, 02:41:04,VALID,914.378,VALID,0,VALID,97.2443,VALID,0,VALID,19.8003,VALID,131,VALID,0.0183594,
2010-11-28, 02:42:04,VALID,914.383,VALID,0,VALID,97.2519,VALID,0.107441,VALID,19.7808,VALID,131,VALID,0.191406,
2010-11-28, 02:43:04,VALID,914.337,VALID,0,VALID,97.2595,VALID,0,VALID,19.7613,VALID,131,VALID,0.740625,
2010-11-28, 02:44:04,VALID,914.297,VALID,0,VALID,97.2595,VALID,0,VALID,19.7418,VALID,130,VALID,0.578125,
2010-11-28, 02:45:04,VALID,914.3,VALID,0,VALID,97.2443,VALID,0,VALID,19.7418,VALID,131,VALID,0.255469,
2010-11-28, 02:46:04,VALID,914.291,VALID,0,VALID,97.2672,VALID,0,VALID,19.7223,VALID,131,VALID,0.0335938,
2010-11-28, 02:47:04,VALID,914.257,VALID,0,VALID,97.2672,VALID,0,VALID,19.7223,VALID,131,VALID,0.0203125,
2010-11-28, 02:48:04,VALID,914.249,VALID,0,VALID,97.2672,VALID,0,VALID,19.7223,VALID,130,VALID,0,
2010-11-28, 02:49:04,VALID,914.248,VALID,0,VALID,97.2824,VALID,0,VALID,19.7028,VALID,131,VALID,0.328516,
2010-11-28, 02:50:04,VALID,914.22,VALID,0,VALID,97.2824,VALID,0,VALID,19.7028,VALID,131,VALID,0.0328125,
2010-11-28, 02:51:04,VALID,914.218,VALID,0,VALID,97.2748,VALID,0,VALID,19.6833,VALID,130,VALID,0,
2010-11-28, 02:52:04,VALID,914.217,VALID,0,VALID,97.2748,VALID,0,VALID,19.6833,VALID,130,VALID,0,
2010-11-28, 02:53:04,VALID,914.227,VALID,0,VALID,97.2748,VALID,0,VALID,19.6638,VALID,130,VALID,0,
2010-11-28, 02:54:04,VALID,914.194,VALID,0,VALID,97.29,VALID,0,VALID,19.6638,VALID,131,VALID,0.642187,
2010-11-28, 02:55:04,VALID,914.217,VALID,0,VALID,97.29,VALID,0.107441,VALID,19.6638,VALID,131,VALID,0.475391,
2010-11-28, 02:56:04,VALID,914.21,VALID,0,VALID,97.2977,VALID,0,VALID,19.6638,VALID,131,VALID,0.806641,
2010-11-28, 02:57:04,VALID,914.224,VALID,0,VALID,97.3053,VALID,0,VALID,19.6443,VALID,130,VALID,0.830859,
2010-11-28, 02:58:04,VALID,914.195,VALID,0,VALID,97.3205,VALID,0,VALID,19.6443,VALID,131,VALID,0.342969,
2010-11-28, 02:59:04,VALID,914.18,VALID,0,VALID,97.29,VALID,0,VALID,19.6248,VALID,131,VALID,0.794531,
2010-11-28, 03:00:04,VALID,914.181,VALID,0,VALID,97.3129,VALID,0,VALID,19.6248,VALID,131,VALID,0.814453,
2010-11-28, 03:01:04,VALID,914.177,VALID,0,VALID,97.3129,VALID,0,VALID,19.6053,VALID,131,VALID,0.933594,
2010-11-28, 03:02:04,VALID,914.196,VALID,0,VALID,97.3129,VALID,0,VALID,19.6248,VALID,131,VALID,0.541406,
2010-11-28, 03:03:04,VALID,914.18,VALID,0,VALID,97.3281,VALID,0,VALID,19.6053,VALID,131,VALID,0.679297,
2010-11-28, 03:04:04,VALID,914.144,VALID,0,VALID,97.3281,VALID,0,VALID,19.6053,VALID,131,VALID,0.115625,
2010-11-28, 03:05:04,VALID,914.18,VALID,0,VALID,97.3358,VALID,0.107441,VALID,19.6053,VALID,131,VALID,0.488672,
2010-11-28, 03:06:04,VALID,914.167,VALID,0,VALID,97.3129,VALID,0,VALID,19.6053,VALID,130,VALID,0,
2010-11-28, 03:07:04,VALID,914.152,VALID,0,VALID,97.3358,VALID,0,VALID,19.6053,VALID,130,VALID,0,
2010-11-28, 03:08:04,VALID,914.147,VALID,0,VALID,97.3205,VALID,0,VALID,19.5843,VALID,131,VALID,0,
2010-11-28, 03:09:04,VALID,914.145,VALID,0,VALID,97.3434,VALID,0,VALID,19.6053,VALID,131,VALID,0,
2010-11-28, 03:10:04,VALID,914.108,VALID,0,VALID,97.351,VALID,0,VALID,19.6053,VALID,131,VALID,0,
2010-11-28, 03:11:04,VALID,914.133,VALID,0,VALID,97.3358,VALID,0,VALID,19.6053,VALID,131,VALID,0,
2010-11-28, 03:12:04,VALID,914.12,VALID,0,VALID,97.3586,VALID,0,VALID,19.5858,VALID,130,VALID,0,
2010-11-28, 03:13:04,VALID,914.118,VALID,0,VALID,97.3358,VALID,0,VALID,19.6068,VALID,131,VALID,0,
2010-11-28, 03:14:04,VALID,914.134,VALID,0,VALID,97.3358,VALID,0,VALID,19.5858,VALID,131,VALID,0,
2010-11-28, 03:15:04,VALID,914.119,VALID,0,VALID,97.351,VALID,0,VALID,19.5873,VALID,131,VALID,0,
2010-11-28, 03:16:04,VALID,914.091,VALID,0,VALID,97.351,VALID,0,VALID,19.5858,VALID,130,VALID,0,
2010-11-28, 03:17:04,VALID,914.117,VALID,0,VALID,97.3663,VALID,0,VALID,19.5873,VALID,130,VALID,0,
2010-11-28, 03:18:04,VALID,914.12,VALID,0,VALID,97.3663,VALID,0,VALID,19.5858,VALID,131,VALID,0,
2010-11-28, 03:19:04,VALID,914.123,VALID,0,VALID,97.3739,VALID,0,VALID,19.6053,VALID,131,VALID,0,
2010-11-28, 03:20:04,VALID,914.139,VALID,0,VALID,97.3663,VALID,0,VALID,19.5858,VALID,131,VALID,0,
2010-11-28, 03:21:04,VALID,914.167,VALID,0,VALID,97.351,VALID,0,VALID,19.5663,VALID,131,VALID,0,
2010-11-28, 03:22:04,VALID,914.133,VALID,0,VALID,97.3586,VALID,0,VALID,19.5468,VALID,131,VALID,0,
2010-11-28, 03:23:04,VALID,914.15,VALID,0,VALID,97.351,VALID,0,VALID,19.5483,VALID,130,VALID,0,
2010-11-28, 03:24:04,VALID,914.173,VALID,0,VALID,97.3586,VALID,0,VALID,19.5273,VALID,131,VALID,0,
2010-11-28, 03:25:04,VALID,914.156,VALID,0,VALID,97.3663,VALID,0,VALID,19.5078,VALID,131,VALID,0,
2010-11-28, 03:26:04,VALID,914.148,VALID,0,VALID,97.3739,VALID,0,VALID,19.5078,VALID,131,VALID,0,
2010-11-28, 03:27:04,VALID,914.128,VALID,0,VALID,97.3663,VALID,0,VALID,19.5078,VALID,131,VALID,0,
2010-11-28, 03:28:04,VALID,914.123,VALID,0,VALID,97.3815,VALID,0,VALID,19.5078,VALID,131,VALID,0,
2010-11-28, 03:29:04,VALID,914.131,VALID,0,VALID,97.3815,VALID,0,VALID,19.4883,VALID,130,VALID,0,
2010-11-28, 03:30:04,VALID,914.105,VALID,0,VALID,97.3815,VALID,0,VALID,19.4883,VALID,131,VALID,0,
2010-11-28, 03:31:04,VALID,914.117,VALID,0,VALID,97.3968,VALID,0,VALID,19.4883,VALID,131,VALID,0,
2010-11-28, 03:32:04,VALID,914.131,VALID,0,VALID,97.3815,VALID,0,VALID,19.4883,VALID,131,VALID,0,
2010-11-28, 03:33:04,VALID,914.161,VALID,0,VALID,97.3739,VALID,0,VALID,19.5078,VALID,130,VALID,0,
2010-11-28, 03:34:04,VALID,914.17,VALID,0,VALID,97.3815,VALID,0,VALID,19.5078,VALID,131,VALID,0,
2010-11-28, 03:35:04,VALID,914.166,VALID,0,VALID,97.3968,VALID,0,VALID,19.5288,VALID,131,VALID,0,
2010-11-28, 03:36:04,VALID,914.176,VALID,0,VALID,97.3968,VALID,0,VALID,19.5468,VALID,131,VALID,0,
2010-11-28, 03:37:04,VALID,914.149,VALID,0,VALID,97.3891,VALID,0,VALID,19.5468,VALID,131,VALID,0,
2010-11-28, 03:38:04,VALID,914.184,VALID,0,VALID,97.412,VALID,0,VALID,19.5873,VALID,130,VALID,0,
2010-11-28, 03:39:04,VALID,914.152,VALID,0,VALID,97.3891,VALID,0,VALID,19.5468,VALID,130,VALID,0,
2010-11-28, 03:40:04,VALID,914.186,VALID,0,VALID,97.3968,VALID,0,VALID,19.5873,VALID,130,VALID,0,
2010-11-28, 03:41:04,VALID,914.187,VALID,0,VALID,97.4044,VALID,0,VALID,19.5468,VALID,131,VALID,0,
2010-11-28, 03:42:04,VALID,914.187,VALID,0,VALID,97.3891,VALID,0,VALID,19.5468,VALID,131,VALID,0,
2010-11-28, 03:43:04,VALID,914.206,VALID,0,VALID,97.3968,VALID,0,VALID,19.5468,VALID,130,VALID,0,
2010-11-28, 03:44:04,VALID,914.243,VALID,0,VALID,97.412,VALID,0,VALID,19.5468,VALID,130,VALID,0,
2010-11-28, 03:45:04,VALID,914.219,VALID,0,VALID,97.4044,VALID,0,VALID,19.5663,VALID,130,VALID,0,
2010-11-28, 03:46:04,VALID,914.249,VALID,0,VALID,97.3968,VALID,0,VALID,19.5873,VALID,131,VALID,0,
2010-11-28, 03:47:04,VALID,914.249,VALID,0,VALID,97.4196,VALID,0,VALID,19.5858,VALID,131,VALID,0,
2010-11-28, 03:48:04,VALID,914.235,VALID,0,VALID,97.3891,VALID,0,VALID,19.6068,VALID,130,VALID,0,
2010-11-28, 03:49:04,VALID,914.251,VALID,0,VALID,97.412,VALID,0,VALID,19.5663,VALID,131,VALID,0,
2010-11-28, 03:50:04,VALID,914.228,VALID,0,VALID,97.4044,VALID,0,VALID,19.5873,VALID,131,VALID,0,
2010-11-28, 03:51:04,VALID,914.253,VALID,0,VALID,97.3891,VALID,0,VALID,19.6068,VALID,131,VALID,0,
2010-11-28, 03:52:04,VALID,914.244,VALID,0,VALID,97.3968,VALID,0,VALID,19.5873,VALID,131,VALID,0,
2010-11-28, 03:53:04,VALID,914.241,VALID,0,VALID,97.4044,VALID,0,VALID,19.5663,VALID,131,VALID,0,
2010-11-28, 03:54:04,VALID,914.254,VALID,0,VALID,97.3968,VALID,0,VALID,19.5858,VALID,130,VALID,0,